ONEWEB-0708, 61613

Orbit data source: Space-Track

ONEWEB-0708, 61613 is a payload satellite owned by Eut. One Web (UK) in LEO that was launched on Sun, 20 Oct 2024 UTC via an FALCON 9 launch vehicle from the Air Force Western Test Range (AFWTR). Payload-class satellites include a variety of spacecraft equipped with specific instruments for various scientific and technological missions. These include communications satellites like Starlink; space stations such as the ISS; scientific satellites like the Hubble; Earth observation satellites from companies like Planet Labs, Umbra, and HawkEye 360; GPS; miniature CubeSats for education and research; and military/defense satellites.

Loading next visibility...
Identifier
61613, 2024-188V
Orbit
LEO
Country
Flag of UKUK
Related business
Manufacturer
One Web
Mission
Operational Commercial Communications
Bus & Motor
ARROW, Unknown motor
Mass
148 kg wet, ~140 kg dry
Launch date (UTC)
2024-10-20 (1 year ago)
Launch vehicle
FALCON 9
Launch site
Air Force Western Test Range (AFWTR)
Object type
Payload
Rocket body
Debris
Shape & HBR
Trap Box + 2 Pan, 6.7 m
Radar Cross Section
3.464 m², Large (>1 m²)

Expand to show TLE details & history
Last TLE update: 12 hours ago

TLE from 12 hours ago
0 ONEWEB-0708
1 61613U 24188V   26035.60412546  .00000628  00000-0  17616-2 0  9993
2 61613  87.8751  62.7007 0002410  90.9950 269.1453 13.10371482 65939
Epoch: 2026-02-04T14:29Z
TLE epoch observation values (Epoch: 2026-02-04T14:29:56.439Z)
Latitude
-0.00008°
Longitude
70.44721°
Altitude
1,224.638 km
Speed
7.242 km/s
True Right ascension
04h 10m 48s
True Declination
0° 00' 00"
Sunlit
Object was in daylight at epoch
Visualization orbit readout
Latitude
Unknown
Longitude
Unknown
Altitude
Unknown
Speed
Unknown
Apparent Right ascension
Unknown
Apparent Declination
Unknown
Sunlit
N/A
Visualization observer readout
Local Sidereal Time
04:38:51
Azimuth
Unknown
Elevation
Unknown
Doppler factor
Unknown
Orbital elements
Apogee altitude
1,220.673 km
Perigee altitude
1,217.011 km
Semi-major axis
7,596.979 km
Eccentricity
0.00024
Inclination
87.8751°
RAAN
62.7007°
Arg. of periapsis
90.995°
True anomaly
269.11769°
Mean anomaly
269.1453°
Eccentric anomaly
269.13149°
Mean motion
3.27779 °/min
Orbital period
109.83 mins
BSTAR
0.0017616
Loading maneuver chart data...
Computing Atmospheric mass density...
Loading historical data...
Loading historical data...
Loading historical data...
Loading historical data...
Loading historical data...
Loading historical data...
Loading historical data...

Documentation

Showing up to 5 results
|